"Date","Average Accumulated Water Year PPT (in)","Average SWE (in)"
10/01/1981,0.001,0.000
10/02/1981,0.137,0.000
10/03/1981,0.222,0.006
10/04/1981,0.246,0.014
10/05/1981,0.284,0.026
10/06/1981,0.332,0.023
10/07/1981,0.417,0.009
10/08/1981,0.713,0.020
10/09/1981,0.902,0.030
10/10/1981,1.008,0.046
10/11/1981,1.176,0.080
10/12/1981,1.261,0.120
10/13/1981,1.327,0.160
10/14/1981,1.329,0.157
10/15/1981,1.332,0.147
10/16/1981,1.333,0.134
10/17/1981,1.334,0.124
10/18/1981,1.334,0.114
10/19/1981,1.334,0.096
10/20/1981,1.343,0.085
10/21/1981,1.423,0.121
10/22/1981,1.425,0.123
10/23/1981,1.429,0.124
10/24/1981,1.433,0.126
10/25/1981,1.444,0.123
10/26/1981,1.455,0.108
10/27/1981,1.546,0.096
10/28/1981,1.589,0.088
10/29/1981,1.753,0.097
10/30/1981,1.877,0.134
10/31/1981,1.927,0.141
11/01/1981,1.934,0.128
11/02/1981,1.937,0.112
11/03/1981,1.938,0.100
11/04/1981,1.949,0.092
11/05/1981,1.958,0.099
11/06/1981,1.963,0.102
11/07/1981,1.963,0.102
11/08/1981,1.966,0.103
11/09/1981,1.967,0.103
11/10/1981,1.975,0.106
11/11/1981,1.977,0.105
11/12/1981,2.077,0.107
11/13/1981,2.294,0.155
11/14/1981,2.544,0.203
11/15/1981,2.747,0.278
11/16/1981,2.869,0.326
11/17/1981,3.208,0.406
11/18/1981,3.755,0.599
11/19/1981,3.855,0.665
11/20/1981,3.905,0.696
11/21/1981,3.971,0.698
11/22/1981,4.296,0.858
11/23/1981,4.531,0.990
11/24/1981,4.659,1.085
11/25/1981,4.781,1.185
11/26/1981,4.816,1.210
11/27/1981,4.821,1.214
11/28/1981,4.834,1.226
11/29/1981,4.837,1.229
11/30/1981,4.865,1.252
12/01/1981,5.043,1.395
12/02/1981,5.526,1.625
12/03/1981,5.826,1.848
12/04/1981,5.876,1.880
12/05/1981,5.978,1.921
12/06/1981,6.776,2.187
12/07/1981,7.148,2.337
12/08/1981,7.227,2.375
12/09/1981,7.254,2.388
12/10/1981,7.518,2.422
12/11/1981,7.646,2.525
12/12/1981,7.695,2.564
12/13/1981,7.712,2.578
12/14/1981,7.873,2.767
12/15/1981,7.960,2.873
12/16/1981,8.252,3.229
12/17/1981,8.299,3.276
12/18/1981,8.309,3.286
12/19/1981,8.439,3.380
12/20/1981,8.716,3.497
12/21/1981,8.729,3.507
12/22/1981,8.762,3.536
12/23/1981,8.804,3.575
12/24/1981,8.871,3.662
12/25/1981,9.140,3.999
12/26/1981,9.249,4.103
12/27/1981,9.394,4.273
12/28/1981,9.557,4.430
12/29/1981,9.670,4.549
12/30/1981,9.686,4.565
12/31/1981,9.743,4.618
01/01/1982,9.836,4.716
01/02/1982,9.877,4.756
01/03/1982,10.020,4.902
01/04/1982,10.241,5.144
01/05/1982,10.456,5.341
01/06/1982,10.518,5.406
01/07/1982,10.542,5.428
01/08/1982,10.711,5.581
01/09/1982,10.766,5.626
01/10/1982,10.798,5.657
01/11/1982,11.009,5.851
01/12/1982,11.061,5.902
01/13/1982,11.126,5.964
01/14/1982,11.198,6.015
01/15/1982,11.451,6.251
01/16/1982,11.714,6.514
01/17/1982,12.284,7.026
01/18/1982,12.619,7.333
01/19/1982,12.772,7.467
01/20/1982,12.832,7.531
01/21/1982,12.892,7.579
01/22/1982,12.975,7.657
01/23/1982,13.485,8.180
01/24/1982,14.103,8.519
01/25/1982,14.461,8.802
01/26/1982,14.625,8.876
01/27/1982,14.825,9.016
01/28/1982,14.893,9.064
01/29/1982,14.996,9.150
01/30/1982,15.133,9.225
01/31/1982,15.438,9.393
02/01/1982,15.617,9.565
02/02/1982,15.726,9.683
02/03/1982,15.844,9.808
02/04/1982,15.881,9.840
02/05/1982,15.885,9.844
02/06/1982,15.921,9.883
02/07/1982,15.949,9.910
02/08/1982,15.987,9.948
02/09/1982,15.996,9.957
02/10/1982,16.005,9.968
02/11/1982,16.022,9.982
02/12/1982,16.119,10.078
02/13/1982,16.330,10.216
02/14/1982,17.156,10.479
02/15/1982,17.853,10.431
02/16/1982,18.309,10.312
02/17/1982,18.697,10.327
02/18/1982,18.866,10.352
02/19/1982,19.261,10.412
02/20/1982,19.781,10.293
02/21/1982,20.419,10.354
02/22/1982,20.675,10.595
02/23/1982,20.770,10.682
02/24/1982,20.894,10.771
02/25/1982,20.912,10.783
02/26/1982,20.940,10.794
02/27/1982,20.984,10.809
02/28/1982,20.992,10.789
03/01/1982,21.176,10.728
03/02/1982,21.523,10.816
03/03/1982,21.622,10.846
03/04/1982,21.795,10.937
03/05/1982,21.863,10.966
03/06/1982,21.881,10.974
03/07/1982,21.900,10.967
03/08/1982,21.921,10.974
03/09/1982,22.177,10.978
03/10/1982,22.716,10.960
03/11/1982,22.905,10.888
03/12/1982,23.207,11.105
03/13/1982,23.379,11.256
03/14/1982,23.523,11.278
03/15/1982,23.681,11.329
03/16/1982,23.874,11.493
03/17/1982,23.920,11.529
03/18/1982,23.945,11.543
03/19/1982,24.080,11.681
03/20/1982,24.193,11.765
03/21/1982,24.219,11.767
03/22/1982,24.235,11.767
03/23/1982,24.255,11.729
03/24/1982,24.403,11.809
03/25/1982,24.424,11.797
03/26/1982,24.460,11.722
03/27/1982,24.559,11.625
03/28/1982,24.599,11.586
03/29/1982,24.743,11.611
03/30/1982,24.810,11.671
03/31/1982,24.924,11.758
04/01/1982,25.077,11.883
04/02/1982,25.143,11.945
04/03/1982,25.310,12.072
04/04/1982,25.549,12.245
04/05/1982,25.740,12.394
04/06/1982,25.787,12.417
04/07/1982,25.902,12.522
04/08/1982,25.941,12.549
04/09/1982,26.033,12.611
04/10/1982,26.053,12.559
04/11/1982,26.308,12.358
04/12/1982,27.041,12.271
04/13/1982,27.254,12.242
04/14/1982,27.702,12.279
04/15/1982,27.958,12.459
04/16/1982,28.080,12.540
04/17/1982,28.107,12.540
04/18/1982,28.272,12.608
04/19/1982,28.355,12.676
04/20/1982,28.389,12.704
04/21/1982,28.398,12.654
04/22/1982,28.414,12.454
04/23/1982,28.420,12.109
04/24/1982,28.425,11.743
04/25/1982,28.436,11.644
04/26/1982,28.439,11.584
04/27/1982,28.451,11.450
04/28/1982,28.481,11.233
04/29/1982,28.664,11.253
04/30/1982,28.670,11.192
05/01/1982,28.693,10.966
05/02/1982,28.702,10.657
05/03/1982,28.706,10.349
05/04/1982,28.835,10.399
05/05/1982,28.864,10.417
05/06/1982,28.901,10.291
05/07/1982,28.949,10.101
05/08/1982,29.122,10.094
05/09/1982,29.196,10.083
05/10/1982,29.224,10.050
05/11/1982,29.225,9.977
05/12/1982,29.233,9.777
05/13/1982,29.249,9.603
05/14/1982,29.250,9.344
05/15/1982,29.269,8.981
05/16/1982,29.274,8.692
05/17/1982,29.283,8.401
05/18/1982,29.427,8.129
05/19/1982,29.588,8.062
05/20/1982,29.647,7.952
05/21/1982,29.653,7.675
05/22/1982,29.661,7.327
05/23/1982,29.763,7.035
05/24/1982,29.765,6.799
05/25/1982,29.774,6.460
05/26/1982,29.806,6.069
05/27/1982,30.123,6.031
05/28/1982,30.407,6.123
05/29/1982,30.704,6.215
05/30/1982,30.744,6.193
05/31/1982,30.755,6.091
06/01/1982,30.759,5.921
06/02/1982,30.782,5.710
06/03/1982,30.869,5.536
06/04/1982,30.890,5.408
06/05/1982,30.988,5.315
06/06/1982,31.117,5.260
06/07/1982,31.203,5.207
06/08/1982,31.337,5.171
06/09/1982,31.347,5.055
06/10/1982,31.353,4.885
06/11/1982,31.356,4.642
06/12/1982,31.368,4.344
06/13/1982,31.427,4.013
06/14/1982,31.500,3.755
06/15/1982,31.572,3.520
06/16/1982,31.666,3.251
06/17/1982,31.724,3.031
06/18/1982,31.725,2.847
06/19/1982,31.728,2.645
06/20/1982,31.732,2.416
06/21/1982,31.753,2.195
06/22/1982,31.809,1.977
06/23/1982,31.835,1.803
06/24/1982,31.928,1.667
06/25/1982,31.958,1.521
06/26/1982,32.059,1.401
06/27/1982,32.248,1.257
06/28/1982,32.451,1.154
06/29/1982,32.699,1.065
06/30/1982,33.018,0.976
07/01/1982,33.171,0.877
07/02/1982,33.614,0.818
07/03/1982,33.757,0.757
07/04/1982,33.840,0.720
07/05/1982,34.082,0.695
07/06/1982,34.242,0.680
07/07/1982,34.263,0.643
07/08/1982,34.369,0.604
07/09/1982,34.394,0.562
07/10/1982,34.427,0.520
07/11/1982,34.428,0.472
07/12/1982,34.459,0.423
07/13/1982,34.465,0.376
07/14/1982,34.827,0.331
07/15/1982,34.917,0.316
07/16/1982,35.142,0.309
07/17/1982,35.159,0.302
07/18/1982,35.171,0.286
07/19/1982,35.172,0.263
07/20/1982,35.174,0.230
07/21/1982,35.183,0.201
07/22/1982,35.183,0.175
07/23/1982,35.185,0.159
07/24/1982,35.189,0.146
07/25/1982,35.194,0.130
07/26/1982,35.208,0.113
07/27/1982,35.208,0.098
07/28/1982,35.208,0.085
07/29/1982,35.211,0.073
07/30/1982,35.211,0.064
07/31/1982,35.263,0.054
08/01/1982,35.275,0.047
08/02/1982,35.357,0.042
08/03/1982,35.399,0.040
08/04/1982,35.477,0.039
08/05/1982,35.482,0.036
08/06/1982,35.483,0.032
08/07/1982,35.484,0.028
08/08/1982,35.489,0.024
08/09/1982,35.588,0.020
08/10/1982,35.660,0.018
08/11/1982,35.728,0.016
08/12/1982,35.815,0.015
08/13/1982,35.838,0.014
08/14/1982,35.918,0.013
08/15/1982,35.957,0.012
08/16/1982,35.963,0.011
08/17/1982,35.972,0.010
08/18/1982,35.974,0.008
08/19/1982,35.980,0.007
08/20/1982,35.987,0.006
08/21/1982,36.017,0.005
08/22/1982,36.031,0.004
08/23/1982,36.039,0.004
08/24/1982,36.044,0.003
08/25/1982,36.044,0.003
08/26/1982,36.045,0.003
08/27/1982,36.045,0.002
08/28/1982,36.047,0.002
08/29/1982,36.066,0.002
08/30/1982,36.149,0.002
08/31/1982,36.262,0.002
09/01/1982,36.273,0.002
09/02/1982,36.277,0.001
09/03/1982,36.283,0.001
09/04/1982,36.383,0.001
09/05/1982,36.427,0.001
09/06/1982,36.438,0.001
09/07/1982,36.449,0.001
09/08/1982,36.451,0.001
09/09/1982,36.456,0.000
09/10/1982,36.659,0.000
09/11/1982,36.814,0.005
09/12/1982,37.031,0.032
09/13/1982,37.155,0.052
09/14/1982,37.253,0.095
09/15/1982,37.279,0.101
09/16/1982,37.312,0.083
09/17/1982,37.314,0.053
09/18/1982,37.314,0.032
09/19/1982,37.314,0.021
09/20/1982,37.317,0.013
09/21/1982,37.405,0.008
09/22/1982,37.448,0.006
09/23/1982,37.451,0.004
09/24/1982,37.452,0.003
09/25/1982,37.496,0.002
09/26/1982,37.879,0.001
09/27/1982,38.126,0.004
09/28/1982,38.503,0.047
09/29/1982,38.806,0.091
09/30/1982,38.848,0.108
10/01/1982,0.008,0.104
10/02/1982,0.052,0.098
10/03/1982,0.250,0.089
10/04/1982,0.333,0.104
10/05/1982,0.426,0.133
10/06/1982,0.456,0.129
10/07/1982,0.578,0.141
10/08/1982,0.747,0.192
10/09/1982,0.758,0.198
10/10/1982,0.763,0.199
10/11/1982,0.766,0.187
10/12/1982,0.766,0.158
10/13/1982,0.766,0.128
10/14/1982,0.769,0.095
10/15/1982,0.772,0.063
10/16/1982,0.787,0.039
10/17/1982,0.919,0.029
10/18/1982,1.166,0.145
10/19/1982,1.191,0.166
10/20/1982,1.200,0.172
10/21/1982,1.203,0.162
10/22/1982,1.290,0.140
10/23/1982,1.588,0.076
10/24/1982,1.634,0.058
10/25/1982,1.648,0.044
10/26/1982,1.777,0.046
10/27/1982,2.004,0.112
10/28/1982,2.038,0.129
10/29/1982,2.193,0.176
10/30/1982,2.228,0.196
10/31/1982,2.233,0.198
11/01/1982,2.340,0.255
11/02/1982,2.476,0.338
11/03/1982,2.485,0.346
11/04/1982,2.507,0.359
11/05/1982,2.550,0.338
11/06/1982,2.935,0.507
11/07/1982,3.090,0.608
11/08/1982,3.151,0.646
11/09/1982,3.165,0.655
11/10/1982,3.171,0.659
11/11/1982,3.181,0.667
11/12/1982,3.260,0.749
11/13/1982,3.454,0.927
11/14/1982,3.471,0.940
11/15/1982,3.486,0.950
11/16/1982,3.526,0.986
11/17/1982,3.748,1.084
11/18/1982,4.148,1.191
11/19/1982,4.596,1.402
11/20/1982,4.897,1.649
11/21/1982,5.113,1.855
11/22/1982,5.242,1.962
11/23/1982,5.261,1.975
11/24/1982,5.267,1.979
11/25/1982,5.269,1.981
11/26/1982,5.273,1.983
11/27/1982,5.280,1.993
11/28/1982,5.420,2.058
11/29/1982,5.600,2.098
11/30/1982,5.851,2.224
12/01/1982,5.906,2.250
12/02/1982,5.952,2.298
12/03/1982,6.271,2.515
12/04/1982,6.909,2.726
12/05/1982,6.979,2.751
12/06/1982,7.119,2.928
12/07/1982,7.283,3.081
12/08/1982,7.307,3.101
12/09/1982,7.310,3.105
12/10/1982,7.311,3.105
12/11/1982,7.313,3.108
12/12/1982,7.322,3.117
12/13/1982,7.582,3.468
12/14/1982,7.786,3.666
12/15/1982,7.919,3.774
12/16/1982,8.382,3.860
12/17/1982,8.634,3.918
12/18/1982,8.903,4.088
12/19/1982,9.054,4.230
12/20/1982,9.165,4.361
12/21/1982,9.572,4.760
12/22/1982,9.903,4.998
12/23/1982,9.997,5.124
12/24/1982,10.074,5.195
12/25/1982,10.093,5.215
12/26/1982,10.191,5.342
12/27/1982,10.295,5.446
12/28/1982,10.331,5.470
12/29/1982,10.344,5.481
12/30/1982,10.360,5.495
12/31/1982,10.365,5.501
01/01/1983,10.371,5.507
01/02/1983,10.377,5.512
01/03/1983,10.509,5.717
01/04/1983,10.736,5.998
01/05/1983,11.299,6.289
01/06/1983,11.898,6.503
01/07/1983,12.225,6.618
01/08/1983,12.574,6.619
01/09/1983,12.932,6.829
01/10/1983,13.262,7.025
01/11/1983,13.502,7.136
01/12/1983,13.525,7.110
01/13/1983,13.527,7.072
01/14/1983,13.528,7.063
01/15/1983,13.529,7.064
01/16/1983,13.531,7.067
01/17/1983,13.537,7.072
01/18/1983,13.538,7.073
01/19/1983,13.547,7.077
01/20/1983,13.561,7.077
01/21/1983,13.568,7.080
01/22/1983,13.576,7.086
01/23/1983,13.761,7.218
01/24/1983,13.867,7.299
01/25/1983,13.967,7.355
01/26/1983,14.047,7.374
01/27/1983,14.339,7.429
01/28/1983,14.440,7.434
01/29/1983,14.461,7.448
01/30/1983,14.483,7.464
01/31/1983,14.489,7.466
02/01/1983,14.490,7.468
02/02/1983,14.497,7.475
02/03/1983,14.497,7.475
02/04/1983,14.499,7.477
02/05/1983,14.504,7.484
02/06/1983,14.506,7.486
02/07/1983,14.597,7.601
02/08/1983,14.649,7.656
02/09/1983,14.807,7.831
02/10/1983,15.054,8.025
02/11/1983,15.136,8.085
02/12/1983,15.209,8.055
02/13/1983,15.385,8.053
02/14/1983,15.468,8.020
02/15/1983,15.514,8.030
02/16/1983,15.723,8.074
02/17/1983,15.943,8.197
02/18/1983,16.407,8.472
02/19/1983,16.749,8.649
02/20/1983,16.815,8.680
02/21/1983,16.951,8.732
02/22/1983,17.061,8.702
02/23/1983,17.127,8.680
02/24/1983,17.149,8.614
02/25/1983,17.205,8.486
02/26/1983,17.352,8.476
02/27/1983,17.442,8.527
02/28/1983,17.457,8.509
03/01/1983,17.564,8.553
03/02/1983,17.681,8.541
03/03/1983,17.814,8.486
03/04/1983,17.838,8.361
03/05/1983,18.078,8.427
03/06/1983,18.221,8.442
03/07/1983,18.332,8.483
03/08/1983,18.621,8.623
03/09/1983,18.736,8.598
03/10/1983,18.804,8.472
03/11/1983,18.841,8.285
03/12/1983,19.169,8.358
03/13/1983,19.268,8.368
03/14/1983,19.478,8.439
03/15/1983,19.559,8.484
03/16/1983,19.591,8.499
03/17/1983,19.624,8.521
03/18/1983,19.643,8.530
03/19/1983,19.659,8.546
03/20/1983,19.663,8.550
03/21/1983,19.664,8.545
03/22/1983,19.669,8.524
03/23/1983,19.741,8.475
03/24/1983,19.817,8.527
03/25/1983,19.822,8.502
03/26/1983,19.837,8.492
03/27/1983,19.847,8.473
03/28/1983,19.958,8.562
03/29/1983,20.055,8.617
03/30/1983,20.564,8.841
03/31/1983,20.799,8.960
04/01/1983,20.935,9.022
04/02/1983,21.065,9.041
04/03/1983,21.270,9.190
04/04/1983,21.372,9.256
04/05/1983,21.375,9.253
04/06/1983,21.386,9.254
04/07/1983,21.390,9.224
04/08/1983,21.467,9.192
04/09/1983,21.479,9.189
04/10/1983,21.677,9.339
04/11/1983,21.767,9.417
04/12/1983,21.776,9.423
04/13/1983,21.786,9.429
04/14/1983,21.787,9.419
04/15/1983,21.789,9.378
04/16/1983,21.791,9.293
04/17/1983,21.795,9.160
04/18/1983,21.813,8.932
04/19/1983,21.815,8.659
04/20/1983,21.824,8.388
04/21/1983,21.828,8.135
04/22/1983,21.841,7.941
04/23/1983,21.863,7.701
04/24/1983,22.027,7.434
04/25/1983,22.456,7.452
04/26/1983,22.663,7.572
04/27/1983,22.710,7.578
04/28/1983,22.779,7.590
04/29/1983,22.782,7.509
04/30/1983,22.784,7.374
05/01/1983,22.795,7.205
05/02/1983,22.805,7.054
05/03/1983,22.826,6.938
05/04/1983,22.827,6.841
05/05/1983,22.834,6.660
05/06/1983,23.144,6.482
05/07/1983,23.378,6.500
05/08/1983,23.589,6.417
05/09/1983,23.917,6.526
05/10/1983,24.318,6.826
05/11/1983,24.369,6.783
05/12/1983,24.372,6.745
05/13/1983,24.375,6.697
05/14/1983,24.388,6.591
05/15/1983,24.488,6.437
05/16/1983,24.636,6.420
05/17/1983,24.704,6.355
05/18/1983,24.817,6.203
05/19/1983,24.998,6.139
05/20/1983,25.010,6.016
05/21/1983,25.012,5.743
05/22/1983,25.012,5.472
05/23/1983,25.014,5.161
05/24/1983,25.016,4.785
05/25/1983,25.016,4.397
05/26/1983,25.019,3.994
05/27/1983,25.020,3.622
05/28/1983,25.021,3.245
05/29/1983,25.023,2.878
05/30/1983,25.024,2.537
05/31/1983,25.025,2.333
06/01/1983,25.032,2.145
06/02/1983,25.177,2.022
06/03/1983,25.259,1.918
06/04/1983,25.292,1.803
06/05/1983,25.314,1.708
06/06/1983,25.316,1.613
06/07/1983,25.318,1.505
06/08/1983,25.324,1.385
06/09/1983,25.337,1.237
06/10/1983,25.342,1.131
06/11/1983,25.639,1.077
06/12/1983,25.707,1.058
06/13/1983,25.798,1.041
06/14/1983,25.803,0.995
06/15/1983,25.873,0.901
06/16/1983,26.094,0.864
06/17/1983,26.104,0.821
06/18/1983,26.536,0.749
06/19/1983,26.734,0.742
06/20/1983,26.849,0.748
06/21/1983,26.857,0.734
06/22/1983,26.865,0.709
06/23/1983,26.964,0.654
06/24/1983,27.220,0.596
06/25/1983,27.230,0.567
06/26/1983,27.260,0.518
06/27/1983,27.388,0.462
06/28/1983,27.728,0.431
06/29/1983,27.916,0.397
06/30/1983,28.272,0.373
07/01/1983,28.355,0.350
07/02/1983,28.670,0.335
07/03/1983,29.028,0.334
07/04/1983,29.066,0.326
07/05/1983,29.094,0.301
07/06/1983,29.116,0.263
07/07/1983,29.134,0.232
07/08/1983,29.219,0.202
07/09/1983,29.274,0.185
07/10/1983,29.747,0.177
07/11/1983,29.855,0.171
07/12/1983,29.874,0.156
07/13/1983,30.025,0.140
07/14/1983,30.671,0.125
07/15/1983,30.883,0.121
07/16/1983,31.049,0.119
07/17/1983,31.065,0.114
07/18/1983,31.092,0.107
07/19/1983,31.115,0.095
07/20/1983,31.196,0.081
07/21/1983,31.546,0.078
07/22/1983,31.557,0.072
07/23/1983,31.567,0.063
07/24/1983,31.605,0.055
07/25/1983,31.772,0.048
07/26/1983,31.822,0.045
07/27/1983,31.826,0.042
07/28/1983,31.832,0.040
07/29/1983,31.842,0.037
07/30/1983,31.842,0.033
07/31/1983,31.865,0.028
08/01/1983,31.896,0.024
08/02/1983,31.930,0.020
08/03/1983,31.963,0.017
08/04/1983,31.983,0.015
08/05/1983,31.989,0.012
08/06/1983,31.990,0.010
08/07/1983,31.990,0.008
08/08/1983,32.013,0.006
08/09/1983,32.034,0.005
08/10/1983,32.071,0.004
08/11/1983,32.461,0.003
08/12/1983,32.639,0.003
08/13/1983,32.654,0.003
08/14/1983,32.659,0.002
08/15/1983,32.665,0.002
08/16/1983,32.672,0.002
08/17/1983,32.672,0.001
08/18/1983,32.673,0.001
08/19/1983,32.674,0.001
08/20/1983,32.682,0.001
08/21/1983,32.732,0.001
08/22/1983,32.800,0.001
08/23/1983,32.900,0.001
08/24/1983,33.233,0.000
08/25/1983,33.311,0.000
08/26/1983,33.379,0.000
08/27/1983,33.411,0.000
08/28/1983,33.426,0.000
08/29/1983,33.429,0.000
08/30/1983,33.431,0.000
08/31/1983,33.432,0.000
09/01/1983,33.460,0.000
09/02/1983,33.684,0.000
09/03/1983,33.708,0.000
09/04/1983,33.713,0.000
09/05/1983,33.780,0.000
09/06/1983,33.817,0.000
09/07/1983,33.818,0.000
09/08/1983,33.852,0.000
09/09/1983,33.959,0.000
09/10/1983,34.025,0.003
09/11/1983,34.534,0.014
09/12/1983,34.637,0.004
09/13/1983,34.644,0.001
09/14/1983,34.648,0.000
09/15/1983,34.649,0.000
09/16/1983,34.650,0.000
09/17/1983,34.667,0.000
09/18/1983,34.719,0.007
09/19/1983,35.062,0.131
09/20/1983,35.095,0.150
09/21/1983,35.113,0.138
09/22/1983,35.115,0.085
09/23/1983,35.120,0.027
09/24/1983,35.120,0.006
09/25/1983,35.120,0.001
09/26/1983,35.121,0.000
09/27/1983,35.126,0.000
09/28/1983,35.159,0.006
09/29/1983,35.160,0.006
09/30/1983,35.216,0.021
10/01/1983,0.024,0.029
10/02/1983,0.041,0.022
10/03/1983,0.044,0.021
10/04/1983,0.107,0.016
10/05/1983,0.174,0.010
10/06/1983,0.178,0.007
10/07/1983,0.181,0.008
10/08/1983,0.185,0.008
10/09/1983,0.244,0.006
10/10/1983,0.439,0.008
10/11/1983,0.546,0.024
10/12/1983,0.546,0.020
10/13/1983,0.557,0.015
10/14/1983,0.593,0.014
10/15/1983,0.620,0.020
10/16/1983,0.653,0.034
10/17/1983,0.667,0.032
10/18/1983,0.926,0.094
10/19/1983,0.934,0.097
10/20/1983,0.952,0.091
10/21/1983,0.960,0.076
10/22/1983,1.015,0.056
10/23/1983,1.319,0.064
10/24/1983,1.370,0.077
10/25/1983,1.372,0.077
10/26/1983,1.372,0.056
10/27/1983,1.373,0.040
10/28/1983,1.376,0.033
10/29/1983,1.394,0.029
10/30/1983,1.399,0.024
10/31/1983,1.490,0.022
11/01/1983,1.656,0.022
11/02/1983,1.787,0.020
11/03/1983,1.917,0.030
11/04/1983,2.513,0.031
11/05/1983,2.658,0.066
11/06/1983,2.791,0.099
11/07/1983,3.296,0.248
11/08/1983,3.414,0.313
11/09/1983,3.467,0.342
11/10/1983,3.524,0.365
11/11/1983,4.078,0.528
11/12/1983,4.235,0.583
11/13/1983,4.457,0.644
11/14/1983,4.647,0.723
11/15/1983,4.883,0.836
11/16/1983,4.974,0.869
11/17/1983,5.173,0.933
11/18/1983,5.408,1.059
11/19/1983,5.646,1.235
11/20/1983,5.914,1.384
11/21/1983,6.158,1.521
11/22/1983,6.212,1.557
11/23/1983,6.234,1.569
11/24/1983,6.323,1.650
11/25/1983,6.600,1.843
11/26/1983,6.691,1.907
11/27/1983,6.804,1.972
11/28/1983,6.851,2.007
11/29/1983,6.938,2.066
11/30/1983,6.957,2.077
12/01/1983,6.972,2.091
12/02/1983,6.974,2.092
12/03/1983,7.033,2.171
12/04/1983,7.038,2.177
12/05/1983,7.056,2.193
12/06/1983,7.148,2.312
12/07/1983,7.235,2.396
12/08/1983,7.652,2.883
12/09/1983,7.802,3.001
12/10/1983,8.251,3.227
12/11/1983,8.502,3.397
12/12/1983,8.616,3.485
12/13/1983,8.755,3.614
12/14/1983,8.869,3.702
12/15/1983,9.064,3.898
12/16/1983,9.120,3.956
12/17/1983,9.216,4.046
12/18/1983,9.252,4.083
12/19/1983,9.289,4.116
12/20/1983,9.336,4.156
12/21/1983,9.346,4.165
12/22/1983,9.351,4.169
12/23/1983,9.361,4.178
12/24/1983,9.366,4.183
12/25/1983,9.370,4.188
12/26/1983,9.482,4.328
12/27/1983,9.564,4.423
12/28/1983,9.620,4.472
12/29/1983,9.651,4.506
12/30/1983,10.001,4.880
12/31/1983,10.141,4.996
01/01/1984,10.217,5.071
01/02/1984,10.234,5.085
01/03/1984,10.585,5.286
01/04/1984,10.871,5.254
01/05/1984,10.998,5.018
01/06/1984,11.112,4.980
01/07/1984,11.168,4.943
01/08/1984,11.211,4.881
01/09/1984,11.234,4.891
01/10/1984,11.241,4.896
01/11/1984,11.369,4.992
01/12/1984,11.442,5.065
01/13/1984,11.554,5.185
01/14/1984,11.614,5.240
01/15/1984,11.624,5.247
01/16/1984,11.676,5.312
01/17/1984,11.721,5.356
01/18/1984,11.733,5.370
01/19/1984,11.743,5.381
01/20/1984,11.747,5.384
01/21/1984,11.783,5.413
01/22/1984,11.944,5.604
01/23/1984,12.124,5.748
01/24/1984,12.382,5.878
01/25/1984,12.884,5.985
01/26/1984,13.104,6.111
01/27/1984,13.164,6.139
01/28/1984,13.225,6.107
01/29/1984,13.248,6.066
01/30/1984,13.263,6.071
01/31/1984,13.278,6.079
02/01/1984,13.279,6.058
02/02/1984,13.280,6.058
02/03/1984,13.280,6.058
02/04/1984,13.281,6.055
02/05/1984,13.282,6.035
02/06/1984,13.284,5.970
02/07/1984,13.287,5.973
02/08/1984,13.292,5.958
02/09/1984,13.294,5.931
02/10/1984,13.342,5.966
02/11/1984,13.398,6.011
02/12/1984,13.531,6.099
02/13/1984,13.745,6.189
02/14/1984,14.005,6.339
02/15/1984,14.058,6.368
02/16/1984,14.137,6.422
02/17/1984,14.225,6.503
02/18/1984,14.257,6.526
02/19/1984,14.264,6.532
02/20/1984,14.292,6.548
02/21/1984,14.380,6.555
02/22/1984,14.604,6.699
02/23/1984,14.773,6.835
02/24/1984,14.858,6.897
02/25/1984,14.985,6.989
02/26/1984,15.068,7.048
02/27/1984,15.108,7.075
02/28/1984,15.120,7.069
02/29/1984,15.131,7.009
03/01/1984,15.192,6.989
03/02/1984,15.293,6.973
03/03/1984,15.352,6.993
03/04/1984,15.441,7.081
03/05/1984,15.468,7.089
03/06/1984,15.474,7.085
03/07/1984,15.475,7.057
03/08/1984,15.476,6.958
03/09/1984,15.507,6.843
03/10/1984,15.527,6.761
03/11/1984,15.725,6.778
03/12/1984,15.933,6.892
03/13/1984,16.275,7.201
03/14/1984,16.597,7.379
03/15/1984,16.840,7.542
03/16/1984,16.930,7.555
03/17/1984,17.026,7.553
03/18/1984,17.093,7.584
03/19/1984,17.161,7.608
03/20/1984,17.230,7.587
03/21/1984,17.404,7.488
03/22/1984,17.668,7.641
03/23/1984,17.701,7.648
03/24/1984,17.817,7.716
03/25/1984,17.950,7.817
03/26/1984,18.164,7.952
03/27/1984,18.318,8.055
03/28/1984,18.352,8.073
03/29/1984,18.416,8.118
03/30/1984,18.443,8.118
03/31/1984,18.446,8.092
04/01/1984,18.457,8.057
04/02/1984,18.460,8.040
04/03/1984,18.475,8.022
04/04/1984,18.478,7.974
04/05/1984,18.584,7.868
04/06/1984,18.732,7.773
04/07/1984,18.775,7.803
04/08/1984,18.989,7.888
04/09/1984,19.136,7.976
04/10/1984,19.315,8.062
04/11/1984,19.532,8.183
04/12/1984,19.618,8.241
04/13/1984,19.823,8.409
04/14/1984,19.831,8.355
04/15/1984,19.836,8.115
04/16/1984,19.847,7.667
04/17/1984,19.871,7.216
04/18/1984,19.956,7.037
04/19/1984,20.159,6.950
04/20/1984,20.863,7.072
04/21/1984,20.958,7.081
04/22/1984,20.969,6.976
04/23/1984,21.055,6.856
04/24/1984,21.183,6.922
04/25/1984,21.206,6.934
04/26/1984,21.312,7.031
04/27/1984,21.360,7.059
04/28/1984,21.373,7.062
04/29/1984,21.424,7.084
04/30/1984,21.432,7.071
05/01/1984,21.524,7.058
05/02/1984,21.745,6.989
05/03/1984,21.946,6.986
05/04/1984,22.142,7.035
05/05/1984,22.253,7.045
05/06/1984,22.399,7.083
05/07/1984,22.489,7.093
05/08/1984,22.499,6.992
05/09/1984,22.572,6.745
05/10/1984,22.644,6.668
05/11/1984,22.685,6.615
05/12/1984,22.894,6.537
05/13/1984,22.912,6.340
05/14/1984,22.982,5.969
05/15/1984,23.269,5.798
05/16/1984,23.594,5.825
05/17/1984,23.712,5.854
05/18/1984,23.724,5.724
05/19/1984,23.739,5.508
05/20/1984,24.170,5.337
05/21/1984,24.244,5.284
05/22/1984,24.319,5.268
05/23/1984,24.572,5.157
05/24/1984,24.874,5.163
05/25/1984,24.948,5.134
05/26/1984,25.010,5.085
05/27/1984,25.301,5.025
05/28/1984,25.310,4.874
05/29/1984,25.316,4.598
05/30/1984,25.337,4.138
05/31/1984,25.495,3.838
06/01/1984,25.526,3.807
06/02/1984,25.528,3.733
06/03/1984,25.534,3.620
06/04/1984,25.561,3.493
06/05/1984,25.848,3.436
06/06/1984,25.977,3.366
06/07/1984,26.088,3.301
06/08/1984,26.187,3.240
06/09/1984,26.561,3.267
06/10/1984,26.699,3.235
06/11/1984,26.805,3.157
06/12/1984,26.971,3.065
06/13/1984,27.062,2.933
06/14/1984,27.121,2.785
06/15/1984,27.129,2.591
06/16/1984,27.151,2.374
06/17/1984,27.162,2.229
06/18/1984,27.165,2.108
06/19/1984,27.173,1.975
06/20/1984,27.215,1.843
06/21/1984,27.865,1.726
06/22/1984,28.495,1.708
06/23/1984,28.507,1.659
06/24/1984,28.508,1.543
06/25/1984,28.514,1.375
06/26/1984,28.516,1.214
06/27/1984,28.518,1.073
06/28/1984,28.520,0.949
06/29/1984,28.563,0.806
06/30/1984,28.601,0.739